Wind_Speed
38 37 35 34 30 24 21 22 24 26 23 19 18 19 19 19 17 16 15 13 13 13 13 14 14 13 14 14 15 15 16 14 10 18 25 27 29 26 26 24 22 21 20
38 36 38 35 33 29 26 24 22 22 23 21 20 20 21 22 23 20 19 19 18 18 17 17 18 16 17 18 18 20 21 22 22 21 22 28 29 28 27 28 25 22 21
37 37 36 38 37 36 33 29 26 24 23 25 23 24 22 20 23 24 22 22 23 23 23 22 21 20 20 20 22 23 24 25 26 25 24 18 23 26 26 25 24 20 20
33 34 34 37 40 39 39 36 32 29 26 26 28 27 25 22 21 25 25 25 25 26 26 26 26 25 26 26 26 26 27 27 26 26 23 22 23 27 25 24 25 19 17
25 26 32 37 37 38 39 41 40 36 34 32 29 28 27 26 26 26 28 29 29 30 30 30 29 29 28 28 27 29 28 28 23 19 19 20 19 18 18 20 23 22 18
28 26 30 29 30 33 35 39 40 42 41 39 38 37 34 33 32 31 31 32 32 33 33 34 34 33 32 32 30 28 26 26 24 19 21 20 28 21 24 23 18 10 4
28 35 26 26 28 31 34 34 37 40 41 43 43 42 42 42 41 39 36 35 35 37 37 37 37 37 36 35 35 33 32 31 31 30 27 29 26 30 24 22 20 17 12
24 28 28 27 26 27 28 34 37 38 38 39 42 43 45 46 45 44 43 42 42 42 41 40 40 42 40 39 37 36 36 36 35 32 29 30 27 24 23 21 21 17 12
14 15 18 25 29 26 27 31 34 28 31 36 40 39 41 43 42 42 40 37 38 40 41 42 43 43 43 40 38 36 35 37 32 28 24 23 21 20 21 21 20 11 7
3 3 8 13 18 23 26 30 31 28 31 30 33 37 41 41 40 39 37 35 33 36 38 38 38 37 36 35 34 32 28 34 28 25 23 22 21 19 17 19 20 17 8
6 4 3 5 10 18 22 26 26 29 30 30 32 34 36 38 39 38 36 36 34 32 31 33 35 36 34 32 29 29 31 28 27 27 26 26 23 17 15 14 14 17 14
7 6 7 5 7 9 13 18 24 32 29 28 26 29 33 34 36 37 36 37 37 34 33 34 34 35 34 31 29 30 29 27 28 28 27 28 25 18 15 12 12 14 13
9 8 9 9 9 9 12 16 18 21 25 26 23 25 27 30 37 37 36 37 36 37 38 38 37 36 34 33 34 33 32 32 31 29 28 27 23 15 13 11 12 12 13
15 13 12 10 10 11 12 13 13 14 21 22 22 23 27 25 31 33 34 35 34 35 36 38 38 39 39 40 37 38 38 35 31 28 28 23 17 13 14 13 13 15 13
14 15 14 11 12 13 13 14 12 12 11 13 19 22 22 23 26 27 29 29 29 29 29 30 30 28 27 27 28 27 24 22 22 21 22 22 19 15 14 13 13 15 11
12 12 14 14 13 14 14 18 15 13 14 14 14 16 22 24 26 25 24 27 30 29 25 22 22 23 21 22 20 20 17 22 27 23 17 18 18 20 15 15 14 15 16
10 13 12 16 17 14 13 14 17 20 14 14 16 15 12 14 18 26 30 31 28 26 26 21 23 24 24 24 26 26 27 26 24 23 18 15 19 17 18 18 18 17 13
9 11 13 12 14 12 12 11 12 14 14 17 20 19 17 18 15 14 16 19 20 21 25 23 24 24 24 22 24 27 28 25 23 21 14 12 19 20 22 23 23 19 16
15 14 15 16 16 17 16 14 12 11 12 15 19 21 21 17 11 12 12 9 8 8 12 18 21 22 22 23 26 25 26 25 25 21 19 16 19 24 24 19 18 19 17
13 14 14 14 15 14 15 14 12 12 12 14 16 21 23 18 16 14 12 8 7 5 5 4 4 4 5 9 14 16 18 18 18 20 18 19 18 21 18 17 17 14 16
8 10 12 10 11 12 11 10 12 12 11 10 11 13 12 12 12 13 14 14 11 9 8 7 7 6 5 5 6 7 7 11 11 13 15 16 16 19 18 18 16 9 14
8 7 7 9 10 9 10 10 8 9 10 12 12 12 12 11 11 12 12 13 12 12 11 11 11 11 11 11 11 10 11 8 4 3 5 7 10 12 15 14 11 14 15
8 6 7 8 9 9 9 9 10 9 8 8 11 12 14 14 13 10 10 10 11 12 13 12 14 15 15 14 13 13 11 8 4 2 2 5 9 12 13 13 12 13 16
6 5 7 8 8 9 8 8 8 7 7 6 6 9 10 11 12 13 12 10 10 13 15 15 15 15 14 14 14 14 13 8 3 1 1 3 5 8 8 10 13 16 17
7 7 7 7 6 7 9 7 7 7 7 6 6 5 5 6 7 8 9 10 11 11 13 14 16 16 16 15 14 13 11 11 5 2 2 2 4 5 6 9 12 15 17
8 9 10 9 8 7 7 7 9 10 9 7 7 4 3 4 4 4 5 6 8 9 10 11 12 14 14 14 15 13 10 8 7 6 2 2 5 6 7 8 11 15 17
Wind_Direction
216 216 216 215 218 223 225 232 235 237 240 236 239 246 250 251 251 254 260 262 265 268 271 276 281 287 289 287 286 284 282 273 256 287 297 308 309 312 313 308 304 297 286
215 218 218 219 222 224 229 231 235 237 234 234 239 247 258 259 250 252 259 260 262 266 269 269 278 280 284 285 287 288 287 284 272 276 291 299 303 312 314 309 306 298 287
210 218 221 223 225 228 231 234 232 235 239 237 239 242 253 264 250 247 257 262 263 266 269 272 276 279 280 281 283 285 288 289 288 281 286 291 300 311 315 313 309 301 289
206 213 220 226 230 233 235 233 236 238 240 240 240 242 248 254 254 246 252 259 263 266 269 273 277 280 283 288 290 292 295 293 291 285 283 286 291 306 302 302 308 308 298
199 206 219 229 234 236 237 238 237 238 241 243 243 244 245 249 251 250 252 257 262 268 274 277 280 282 286 289 290 293 295 293 284 279 281 287 277 287 285 299 293 300 296
204 214 223 229 234 237 240 241 242 243 243 246 249 249 249 251 253 254 256 259 262 265 271 276 280 285 288 292 293 293 292 290 280 274 279 278 284 285 290 289 286 287 287
215 222 220 228 236 244 246 244 246 246 247 249 252 254 254 255 257 258 258 259 261 265 269 273 277 282 288 291 294 295 295 293 289 289 277 282 284 291 291 287 285 274 252
221 232 240 237 241 244 244 244 246 247 248 251 253 255 258 260 262 263 263 261 261 264 267 271 274 280 282 286 289 291 293 295 295 296 291 293 293 296 293 287 285 283 261
203 226 234 243 249 247 239 240 244 239 242 248 254 256 257 260 263 265 265 261 262 264 267 270 272 275 280 283 283 283 286 290 296 298 300 297 294 290 280 279 271 241 232
52 249 247 242 244 239 239 242 246 241 243 246 250 251 257 261 265 267 266 260 255 261 270 272 275 276 279 282 281 278 273 288 299 303 299 295 293 286 284 278 264 236 206
354 344 326 272 261 256 253 247 245 245 243 243 242 247 251 258 265 267 267 261 256 256 259 265 270 278 282 285 284 274 277 292 292 291 291 291 291 281 287 278 258 247 233
11 359 10 354 312 293 279 272 258 246 243 241 241 247 251 254 263 269 269 266 266 256 256 264 269 278 279 281 278 279 280 283 279 278 282 288 286 280 290 268 253 244 238
43 24 4 355 346 334 334 325 277 249 238 242 238 241 248 254 259 263 267 267 265 261 261 266 271 274 275 275 274 276 277 271 269 266 262 268 273 275 274 244 233 222 221
22 30 28 15 2 352 337 337 341 250 235 240 240 245 252 250 255 263 264 260 260 261 262 262 265 267 270 270 274 277 277 271 263 259 261 266 259 251 246 228 217 210 211
6 13 16 20 12 1 345 336 332 323 331 307 258 244 246 249 244 255 253 255 265 267 268 265 266 266 265 266 272 270 270 268 252 256 251 253 250 243 219 216 212 204 196
1 7 11 14 14 13 1 346 336 345 352 348 340 299 263 260 263 263 264 262 261 264 255 242 245 251 249 255 255 262 259 267 270 261 258 258 250 226 206 204 212 207 204
1 353 6 14 14 355 358 4 343 345 346 0 347 351 341 325 293 272 262 262 260 264 246 242 247 245 247 247 253 249 249 269 276 274 280 269 245 218 206 206 210 209 199
21 359 9 13 14 7 359 357 359 350 349 349 338 341 336 330 313 320 310 283 266 255 251 247 248 250 254 254 253 255 266 274 276 275 254 246 246 218 210 212 207 196 191
11 3 4 10 11 14 13 13 14 1 356 357 352 349 351 352 359 357 348 335 283 283 290 272 268 272 276 277 275 274 278 280 288 270 249 225 223 227 219 219 204 195 192
5 1 4 3 359 0 9 8 14 13 6 11 10 358 359 5 12 9 15 26 41 32 4 6 339 295 290 286 285 281 278 283 277 260 257 242 221 219 220 226 215 183 192
344 356 360 359 2 351 347 358 13 22 13 12 17 9 15 22 21 26 26 25 23 25 23 33 32 26 19 356 355 338 301 281 278 273 261 251 228 210 212 218 214 197 201
314 321 336 349 350 349 349 353 8 22 21 20 20 30 41 40 41 38 33 27 28 35 40 49 50 50 49 44 40 52 55 46 18 275 227 208 210 213 203 204 199 201 194
281 277 298 322 328 333 340 343 356 7 17 27 30 36 40 46 44 52 47 41 40 41 44 52 55 53 52 52 44 42 38 34 35 342 266 217 207 206 210 205 202 202 198
256 266 284 296 308 318 318 342 353 353 354 5 25 31 38 44 51 52 54 57 54 50 47 46 49 49 48 45 40 36 30 23 56 91 220 206 226 230 218 225 214 209 203
262 254 268 287 292 308 309 299 326 343 342 332 332 346 7 18 35 49 53 56 58 58 56 49 46 43 41 38 35 31 26 26 38 129 192 209 228 252 251 248 235 217 203
308 283 270 269 271 286 302 299 294 292 292 300 312 306 332 5 14 27 51 61 58 54 51 49 45 38 35 32 27 18 12 9 13 22 29 287 255 241 242 242 242 236 218
Height
805 809 814 818 822 826 828 832 835 838 841 842 845 847 848 849 850 851 853 854 853 854 855 855 856 857 857 857 857 857 857 856 855 848 845 842 838 836 833 831 828 826 823
798 803 809 814 819 822 825 827 831 833 836 839 841 843 844 845 847 849 850 851 851 852 852 853 853 854 854 855 854 853 853 852 850 844 841 838 834 831 828 824 822 820 818
792 798 803 809 813 817 820 824 827 830 833 836 837 839 840 841 842 844 846 847 848 848 849 849 849 850 849 850 850 849 848 846 844 841 835 832 829 826 822 819 816 814 812
787 793 798 803 807 811 815 820 823 826 828 831 832 834 836 837 838 839 841 842 842 843 844 844 844 845 844 844 844 842 841 840 838 835 831 828 824 820 818 814 810 808 806
786 790 794 798 803 807 810 813 817 820 823 826 828 829 830 831 832 833 835 835 836 836 837 838 838 838 839 839 838 836 835 833 832 829 826 823 818 814 812 809 806 803 801
780 785 791 795 798 802 805 808 811 813 815 819 821 823 824 825 826 827 829 829 830 830 829 830 830 831 831 831 831 830 830 827 825 824 820 817 811 809 806 804 801 800 798
778 779 784 788 791 796 799 802 803 806 809 810 813 815 815 816 818 820 822 823 823 822 822 822 822 822 822 822 821 821 820 819 817 817 814 810 806 802 801 798 795 794 793
778 782 781 784 789 791 793 794 795 798 800 801 803 804 806 806 808 809 812 814 815 814 814 814 814 813 814 814 813 812 810 808 807 806 805 801 800 797 796 793 791 789 789
774 776 777 778 781 783 786 787 789 792 793 793 793 795 796 796 797 799 803 805 806 805 805 805 805 804 803 805 805 803 802 798 799 798 796 793 792 791 789 787 785 785 785
774 775 775 775 776 778 779 781 783 786 785 786 786 785 786 786 788 791 794 795 796 796 795 794 794 794 795 795 796 795 794 790 790 789 788 786 785 783 783 781 779 778 780
774 773 775 772 773 773 773 775 776 776 778 778 777 777 778 778 779 781 784 787 787 786 785 784 783 784 785 786 787 787 784 784 782 781 779 777 776 776 775 774 774 774 776
773 771 770 769 770 769 770 769 767 768 770 771 771 770 770 770 770 771 774 776 778 777 776 775 776 776 776 777 777 776 776 776 774 772 771 770 769 770 769 768 770 770 772
774 771 769 767 767 765 764 763 761 760 762 764 763 763 759 762 762 762 764 766 768 767 767 767 767 768 768 768 767 767 767 765 763 761 758 754 757 762 762 763 765 767 769
773 771 769 769 768 767 764 762 759 758 758 757 757 755 755 753 752 754 755 757 758 758 758 758 759 759 760 757 758 759 757 756 755 752 752 750 749 750 755 757 761 764 766
775 773 770 767 766 763 762 762 759 758 756 753 750 749 749 747 744 748 751 749 749 748 750 751 751 751 750 749 749 749 750 752 749 746 743 743 743 746 746 752 757 760 761
781 777 773 767 762 760 759 757 757 753 750 749 746 743 743 743 742 743 744 744 743 743 743 743 742 742 743 742 742 743 746 745 743 741 736 735 737 743 742 748 753 753 756
780 779 774 768 762 761 758 754 754 749 748 747 744 741 740 738 736 735 735 736 736 737 736 736 736 734 734 734 734 735 735 736 736 735 732 730 737 738 740 742 746 748 752
777 779 773 768 764 763 760 756 754 753 748 745 743 741 738 736 734 731 728 727 728 729 728 729 728 728 728 728 728 728 730 729 727 727 724 725 734 735 736 735 737 741 747
771 773 769 764 763 761 759 758 755 754 751 745 743 739 737 735 733 730 727 726 725 724 724 724 724 725 725 725 724 722 722 722 721 723 723 720 723 731 731 733 735 735 741
770 773 767 765 765 765 763 762 756 752 751 748 743 741 737 735 733 731 730 728 726 723 722 720 720 721 718 719 719 717 715 714 715 718 719 720 717 722 729 731 736 733 737
774 771 770 768 767 769 767 765 760 755 753 750 747 745 741 739 738 735 732 730 728 726 724 720 718 718 716 716 714 712 711 710 712 715 717 719 719 719 723 728 731 732 735
772 771 771 771 770 767 767 765 761 757 756 752 749 746 743 741 739 736 734 732 730 728 725 721 720 719 717 715 714 712 710 711 713 715 714 715 718 722 722 724 727 729 732
772 772 771 770 769 768 765 764 760 758 756 754 752 749 746 741 740 737 735 734 732 729 727 723 722 720 718 716 715 713 712 712 713 715 714 715 718 720 722 722 723 727 731
769 770 770 770 768 767 764 762 759 759 756 755 752 751 749 746 742 739 737 735 732 730 728 726 723 721 719 718 716 714 713 714 714 714 716 716 718 720 718 721 722 724 729
768 767 767 766 764 764 762 760 758 756 755 755 753 751 749 747 745 741 739 737 735 733 730 728 726 725 722 719 717 716 716 715 714 714 714 715 717 718 718 719 721 723 725
768 766 765 763 762 761 760 759 758 757 756 754 753 751 747 745 745 742 740 738 737 735 732 730 728 726 723 721 719 719 717 715 714 713 712 714 715 715 716 717 719 721 721